Location: Cheyres
(46.8153°N, 6.7877°E)
Time: 19:57:24
(UTC+00:00)

Meteor 1-10 Rocket - Visible Passes

Search period start: 24 September 2021 00:00
Search period end: 04 October 2021 00:00
Orbit: 836 x 910 km, 81.3° (Epoch: 23 September)

Date Brightness Start Highest point End Pass type
(mag) Time Alt. Az. Time Alt. Az. Time Alt. Az.
24 Sep 6.7 02:07:27 10° ESE 02:10:56 17° E 02:14:27 10° NE visible
24 Sep 4.2 03:47:59 10° SSW 03:53:36 75° WNW 03:59:22 10° N visible
25 Sep 6.7 02:01:55 10° ESE 02:05:34 18° E 02:09:15 10° NE visible
25 Sep 4.2 03:43:04 12° SSW 03:48:16 71° WNW 03:54:02 10° N visible
26 Sep 6.6 01:56:24 10° SE 02:00:11 19° E 02:04:01 10° NE visible
26 Sep 4.2 03:38:45 19° SSW 03:42:56 68° WNW 03:48:42 10° N visible
27 Sep 6.5 01:51:48 13° ESE 01:54:49 20° E 01:58:47 10° NE visible
27 Sep 4.2 03:34:19 26° SSW 03:37:36 66° WNW 03:43:22 10° N visible
28 Sep 6.4 01:47:17 17° ESE 01:49:27 21° E 01:53:33 10° NE visible
28 Sep 4.2 03:29:49 34° SW 03:32:16 63° WNW 03:38:01 10° N visible
29 Sep 6.2 01:42:41 20° ESE 01:44:04 21° E 01:48:18 10° NE visible
29 Sep 4.2 03:25:13 42° SW 03:26:56 60° WNW 03:32:41 10° N visible
30 Sep 6.2 01:38:02 22° E 01:38:42 22° E 01:43:03 10° NE visible
30 Sep 4.3 03:20:33 50° WSW 03:21:37 58° WNW 03:27:21 10° N visible
01 Oct 6.1 01:33:19 24° E 01:33:20 24° E 01:37:48 10° NE visible
01 Oct 4.3 03:15:50 54° W 03:16:17 55° WNW 03:22:01 10° N visible
02 Oct 6.1 01:28:33 24° ENE 01:28:33 24° ENE 01:32:33 10° NE visible
02 Oct 4.4 03:11:04 53° WNW 03:11:04 53° WNW 03:16:40 10° N visible
03 Oct 6.2 01:23:45 24° ENE 01:23:45 24° ENE 01:27:17 10° NNE visible
03 Oct 4.6 03:06:15 49° NW 03:06:15 49° NW 03:11:20 10° N visible
